TimeEST,TemperatureF,Dew PointF,Humidity,Sea Level PressureIn,VisibilityMPH,Wind Direction,Wind SpeedMPH,Gust SpeedMPH,PrecipitationIn,Events,Conditions,WindDirDegrees,DateUTC
12:54 AM,34.0,32.0,92,30.36,6.0,Calm,Calm,-,N/A,,Clear,0,2013-12-27 05:54:00
1:54 AM,34.0,30.9,89,30.36,8.0,NNE,4.6,-,N/A,,Clear,20,2013-12-27 06:54:00
2:54 AM,36.0,30.0,79,30.37,10.0,NNE,4.6,-,N/A,,Clear,30,2013-12-27 07:54:00
3:54 AM,34.0,28.0,79,30.37,10.0,NNE,4.6,-,N/A,,Clear,30,2013-12-27 08:54:00
4:54 AM,32.0,28.0,85,30.38,10.0,North,3.5,-,N/A,,Clear,350,2013-12-27 09:54:00
5:54 AM,30.9,26.1,82,30.40,10.0,North,3.5,-,N/A,,Clear,350,2013-12-27 10:54:00
6:54 AM,30.9,24.1,76,30.40,10.0,NNE,4.6,-,N/A,,Clear,20,2013-12-27 11:54:00
7:54 AM,30.9,24.1,76,30.43,10.0,North,4.6,-,N/A,,Clear,360,2013-12-27 12:54:00
8:54 AM,37.0,24.1,59,30.43,10.0,NNE,10.4,-,N/A,,Clear,30,2013-12-27 13:54:00
9:54 AM,43.0,27.0,53,30.45,10.0,NE,8.1,-,N/A,,Clear,40,2013-12-27 14:54:00
10:54 AM,46.0,28.9,51,30.45,10.0,NNE,5.8,-,N/A,,Clear,30,2013-12-27 15:54:00
11:54 AM,48.9,28.0,44,30.43,10.0,NE,5.8,-,N/A,,Clear,40,2013-12-27 16:54:00
12:54 PM,51.1,27.0,39,30.40,10.0,NE,4.6,-,N/A,,Clear,40,2013-12-27 17:54:00
1:54 PM,52.0,28.0,40,30.38,10.0,NE,6.9,-,N/A,,Clear,50,2013-12-27 18:54:00
2:54 PM,52.0,27.0,38,30.37,10.0,North,8.1,-,N/A,,Clear,360,2013-12-27 19:54:00
3:54 PM,52.0,27.0,38,30.38,10.0,North,8.1,-,N/A,,Clear,10,2013-12-27 20:54:00
4:54 PM,50.0,28.0,43,30.39,10.0,NNE,5.8,-,N/A,,Clear,20,2013-12-27 21:54:00
5:54 PM,43.0,33.1,68,30.41,10.0,Calm,Calm,-,N/A,,Clear,0,2013-12-27 22:54:00
6:54 PM,39.0,33.1,79,30.42,10.0,Calm,Calm,-,N/A,,Clear,0,2013-12-27 23:54:00
7:54 PM,37.0,32.0,82,30.43,10.0,Calm,Calm,-,N/A,,Clear,0,2013-12-28 00:54:00
8:54 PM,35.1,30.0,82,30.43,10.0,Calm,Calm,-,N/A,,Clear,0,2013-12-28 01:54:00
9:54 PM,33.1,30.0,89,30.43,10.0,Calm,Calm,-,N/A,,Clear,0,2013-12-28 02:54:00
10:54 PM,32.0,28.9,88,30.43,10.0,Calm,Calm,-,N/A,,Clear,0,2013-12-28 03:54:00
11:54 PM,32.0,28.0,85,30.41,7.0,Calm,Calm,-,N/A,,Clear,0,2013-12-28 04:54:00